Location: İstanbul
(41.0082°N, 28.9784°E)
Time: 07:33:12
(UTC+03:00)

DOVE 4 - Pass Details

Date: 30 April 2024
Orbit: 582 x 778 km, 97.7° (Epoch: 27 May)

Event Time Altitude Azimuth Distance (km) Brightness Sun altitude
Rises 23:17:49 0° 4° (N) 2,964 ? -29.0°
Reaches altitude 10° 23:20:04 10° 357° (N) 2,080 ? -29.2°
Maximum altitude 23:24:19 40° 288° (WNW) 1,006 ? -29.5°
Enters shadow 23:24:24 40° 285° (WNW) 1,007 ? -29.6°
